Location: Peterborough
(44.3091°N, 78.3197°W)
Time: 06:30:28
(UTC-04:00)

Vanguard 3 - Pass Details

Date: 29 March 2023
Orbit: 507 x 3246 km, 33.4° (Epoch: 04 June)

Event Time Altitude Azimuth Distance (km) Brightness Sun altitude
Rises 05:59:19 0° 262° (W) 6,928 - -11.5°
Reaches altitude 10° 06:03:50 10° 259° (W) 6,065 - -10.8°
Exits shadow 06:04:32 12° 258° (WSW) 5,935 10.8 -10.6°
Maximum altitude 06:22:57 58° 188° (S) 3,449 10.2 -7.4°
Drops below altitude 10° 06:38:26 10° 115° (ESE) 5,030 12.2 -4.7°
Sets 06:41:47 0° 111° (ESE) 5,732 12.7 -4.1°
